Location: Franzen
(48.6167°N, 15.3833°E)
Time: 18:39:22
(UTC+00:00)

Altair - Pass Details

Date: 04 August 2021
Orbit: 1501 x 1682 km, 47.2° (Epoch: 19 September)

Event Time Altitude Azimuth Distance (km) Brightness Sun altitude
Rises 22:13:33 0° 200° (SSW) 4,798 - -23.4°
Reaches altitude 10° 22:17:13 10° 190° (S) 3,787 - -23.6°
Maximum altitude 22:24:55 29° 135° (SE) 2,571 - -23.8°
Exits shadow 22:25:20 28° 131° (SE) 2,573 8.2 -23.8°
Drops below altitude 10° 22:32:25 10° 81° (E) 3,693 9.5 -24.0°
Sets 22:35:56 0° 71° (ENE) 4,661 10.2 -24.1°
